Regional Weather Roundup
Issued by NWS Nashville, TN

Home | Current Version | Previous Version | Text Only | Print | Product List | Glossary On
Versions: 1 2 3 4 5 6 7 8 9 10 11 12 13 14 15 16 17 18 19 20 21 22 23 24 25 26 27 28 29 30 31 32 33 34 35 36 37 38 39 40 41 42 43 44 45 46 47 48 49 50
000
ASUS44 KOHX 090210
RWROHX
MIDDLE TENNESSEE HOURLY WEATHER ROUNDUP
NATIONAL WEATHER SERVICE NASHVILLE TN
800 PM CST MON FEB 08 2016

NOTE: "FAIR" INDICATES FEW OR NO CLOUDS BELOW 12,000 FEET WITH
NO SIGNIFICANT WEATHER AND/OR OBSTRUCTIONS TO VISIBILITY.

* THESE REPORTS ARE NOT UNDER NWS QUALITY CONTROL AND MAY NOT
  REPORT WEATHER SUCH AS PRECIPITATION AND FOG.


TNZ005>011-023>034-057-059-062>066-078-080-090300
...NORTHERN MIDDLE TENNESSEE...

CITY           SKY/WX    TMP DP  RH WIND       PRES   REMARKS
CLARKSVILLE    LGT SNOW  29  23  78 NW15G24   29.91R WCI  18
CROSSVILLE     LGT SNOW  27  22  81 W14       29.79F WCI  16
DICKSON        CLOUDY    28  19  69 W12       29.88S WCI  18
LEBANON        CLOUDY    28  25  89 NW13      29.88R WCI  17
LIVINGSTON     CLOUDY    28  22  78 W9        29.82R WCI  19
NASHVILLE      LGT SNOW  31  25  78 NW7       29.90S WCI  24
PORTLAND       CLOUDY   N/A N/A N/A W10       29.86S
ROCKWOOD       CLOUDY    28  22  78 W13       29.76S WCI  17
SMYRNA         CLOUDY    31  24  75 NW12      29.92R WCI  22
SPARTA         CLOUDY    28  27  93 NW7       29.83F WCI  21
$$
TNZ056-058-060-061-075>077-079-093>097-090300
...SOUTHERN MIDDLE TENNESSEE...

CITY           SKY/WX    TMP DP  RH WIND       PRES   REMARKS
COLUMBIA       MOCLDY    30  30 100 W6        29.90R WCI  24
FAYETTEVILLE   CLOUDY    36  25  64 VRB6G14   29.89R WCI  31
LEWISBURG      CLOUDY    34  23  64 NW8       29.90R WCI  27
MCMINNVILLE    CLOUDY    30  28  93 W8        29.86R WCI  23
SHELBYVILLE    CLOUDY    34  28  80 NW12      29.90R WCI  25
TULLAHOMA      MOCLDY    30  21  69 W10       29.87S WCI  21
WINCHESTER     CLOUDY    34  25  69 NW7       29.87F WCI  28
$$


...KEY TO REMARKS...
VSB - VISIBILITY IN MILES
WCI - WIND CHILL INDEX
HX  - HEAT INDEX




USA.gov is the U.S. government's official web portal to all federal, state and local government web resources and services.